Greenwood, MS

10:48 PM CDT on May 24, 2017 (GMT -0500)
Greenwood-Leflore

Weather History for KGWO - April, 2014

Change the Weather History Date:

Saturday, April 19, 2014

  Actual Average Record
Temperature  
Mean Temperature 63 °F 64 °F  
Max Temperature 79 °F 76 °F 91 °F (1987)
Min Temperature 47 °F 53 °F 36 °F (1953)
Degree Days  
Heating Degree Days 2 3  
Month to date heating degree days 135 97  
Since 1 July heating degree days 3227 2644  
Cooling Degree Days 0 3  
Month to date cooling degree days 30 39  
Year to date cooling degree days 34 65  
Growing Degree Days 12 (Base 50)    
Moisture  
Dew Point 50 °F    
Average Humidity 68    
Maximum Humidity 100    
Minimum Humidity 35    
Precipitation  
Precipitation 0.00 in 0.17 in 4.13 in (1982)
Month to date precipitation 6.59 3.28  
Year to date precipitation 16.95 16.53  
Sea Level Pressure  
Sea Level Pressure 30.17 in    
Wind  
Wind Speed 2 mph (North)    
Max Wind Speed 14 mph    
Max Gust Speed 19 mph    
Visibility 6 miles    
Events Fog    
T = Trace of Precipitation, MM = Missing Value Source: NWS Daily Summary

Daily Weather History Graph

Daily Weather History Graph

Search for Another Location

Airport or City:

Trip Planner

Search our weather history database for the weather conditions in past years. The results will help you decide how hot, cold, wet, or windy it might be!

Date:

Astronomy

Apr. 19, 2014 Rise Set
Actual Time 6:25 AM CDT 7:34 PM CDT
Civil Twilight 5:59 AM CDT 8:00 PM CDT
Nautical Twilight 5:28 AM CDT 8:30 PM CDT
Astronomical Twilight 4:57 AM CDT 9:02 PM CDT
Moon No Moon Rise 9:50 AM CDT (4/19)
Length of Visible Light 14h 00m
Length of Day
13h 09m
Waning Gibbous, 78% of the Moon is Illuminated
Apr 19
Waning Gibbous
Apr 22
Last Quarter
Apr 29
New
May 6
First Quarter
May 14
Full

Hourly Weather History & Observations

Time (CDT) Temp. Dew Point Humidity Pressure Visibility Wind Dir Wind Speed Gust Speed Precip Events Conditions
12:14 AM 53.1 °F 51.1 °F 93% 30.19 in 0.8 mi Calm Calm - N/A   Clear
12:24 AM 53.1 °F 51.1 °F 93% 30.19 in 2.5 mi Calm Calm - N/A   Clear
12:31 AM 52.0 °F 51.1 °F 97% 30.19 in 5.0 mi Calm Calm - N/A   Clear
12:53 AM 52.0 °F 50.0 °F 93% 30.19 in 4.0 mi Calm Calm - N/A   Partly Cloudy
1:02 AM 51.1 °F 50.0 °F 96% 30.20 in 2.0 mi Calm Calm - N/A   Mostly Cloudy
1:12 AM 52.0 °F 51.1 °F 97% 30.20 in 5.0 mi SSE 3.5 mph - N/A   Mostly Cloudy
1:53 AM 52.0 °F 50.0 °F 93% 30.19 in 5.0 mi Calm Calm - N/A   Partly Cloudy
2:27 AM 48.9 °F 48.0 °F 97% 30.19 in 2.0 mi Calm Calm - N/A   Mostly Cloudy
2:38 AM 52.0 °F 50.0 °F 93% 30.18 in 7.0 mi NE 3.5 mph - N/A   Mostly Cloudy
2:53 AM 51.1 °F 50.0 °F 96% 30.18 in 7.0 mi Calm Calm - N/A   Mostly Cloudy
3:53 AM 51.8 °F 50.0 °F 94% 30.17 in 6.0 mi Calm Calm - N/A   Mostly Cloudy
4:53 AM 51.1 °F 48.9 °F 92% 30.15 in 9.0 mi Calm Calm - N/A   Clear
5:08 AM 48.9 °F 48.9 °F 100% 30.15 in 1.8 mi Calm Calm - N/A   Clear
5:16 AM 48.9 °F 48.0 °F 97% 30.16 in 0.5 mi Calm Calm - N/A Fog Fog
5:37 AM 48.9 °F 46.9 °F 93% 30.15 in 3.0 mi NE 3.5 mph - N/A   Clear
5:43 AM 46.9 °F 46.0 °F 97% 30.16 in 1.8 mi NNE 3.5 mph - N/A   Clear
5:53 AM 48.9 °F 48.0 °F 97% 30.17 in 2.5 mi Calm Calm - N/A   Clear
6:00 AM 50.0 °F 48.0 °F 93% 30.17 in 4.0 mi Calm Calm - N/A   Clear
6:14 AM 48.0 °F 46.9 °F 96% 30.17 in 1.5 mi Calm Calm - N/A   Clear
6:24 AM 48.0 °F 46.9 °F 96% 30.17 in 4.0 mi NNE 3.5 mph - N/A   Clear
6:30 AM 46.9 °F 45.0 °F 93% 30.17 in 0.8 mi Calm Calm - N/A   Clear
6:42 AM 48.9 °F 48.0 °F 97% 30.18 in 2.5 mi Calm Calm - N/A   Clear
6:53 AM 50.0 °F 48.9 °F 96% 30.18 in 2.5 mi Calm Calm - N/A   Clear
7:14 AM 50.0 °F 48.9 °F 96% 30.19 in 6.0 mi Calm Calm - N/A   Clear
7:53 AM 55.0 °F 52.0 °F 89% 30.21 in 8.0 mi Calm Calm - N/A   Clear
8:53 AM 61.0 °F 55.0 °F 81% 30.22 in 10.0 mi NNW 3.5 mph - N/A   Clear
9:53 AM 64.9 °F 54.0 °F 68% 30.21 in 10.0 mi NW 5.8 mph - N/A   Clear
10:53 AM 69.1 °F 54.0 °F 58% 30.21 in 10.0 mi NNE 4.6 mph - N/A   Clear
11:53 AM 73.0 °F 52.0 °F 48% 30.19 in 10.0 mi NNE 8.1 mph - N/A   Clear
12:53 PM 73.9 °F 50.0 °F 43% 30.18 in 10.0 mi Calm Calm - N/A   Clear
1:53 PM 77.0 °F 50.0 °F 39% 30.15 in 10.0 mi NNE 4.6 mph - N/A   Clear
2:53 PM 78.1 °F 48.9 °F 36% 30.13 in 10.0 mi Variable 5.8 mph - N/A   Clear
3:53 PM 78.1 °F 48.0 °F 35% 30.11 in 10.0 mi Variable 3.5 mph - N/A   Clear
4:53 PM 78.1 °F 48.0 °F 35% 30.10 in 10.0 mi NW 6.9 mph - N/A   Clear
5:53 PM 78.1 °F 48.0 °F 35% 30.09 in 10.0 mi North 6.9 mph - N/A   Clear
6:53 PM 75.0 °F 48.0 °F 38% 30.10 in 10.0 mi NNW 4.6 mph - N/A   Clear
7:53 PM 64.9 °F 52.0 °F 63% 30.11 in 10.0 mi Calm Calm - N/A   Clear
8:53 PM 61.0 °F 53.1 °F 75% 30.12 in 10.0 mi Calm Calm - N/A   Clear
9:53 PM 59.0 °F 52.0 °F 78% 30.14 in 10.0 mi Calm Calm - N/A   Clear
10:53 PM 57.0 °F 52.0 °F 83% 30.14 in 10.0 mi Calm Calm - N/A   Clear
11:53 PM 54.0 °F 52.0 °F 93% 30.14 in 9.0 mi Calm Calm - N/A   Clear